Location: Boursonne
(49.2024°N, 3.0468°E)
Time: 03:27:42
(UTC+00:00)

FALCON 9 DEB - Pass Details

Date: 03 March 2021
Orbit: 371 x 387 km, 53.0° (Epoch: 16 April)

Event Time Altitude Azimuth Distance (km) Brightness Sun altitude
Rises 19:17:36 0° 287° (WNW) 2,295 8.5 -17.6°
Reaches altitude 10° 19:19:44 10° 294° (WNW) 1,438 6.9 -17.9°
Maximum altitude 19:22:50 43° 8° (N) 568 3.7 -18.4°
Enters shadow 19:23:09 41° 27° (NNE) 584 3.6 -18.5°
